Observer details:
204 Schiaparelli Observatory.  Observer L. Buzzi.  0.60-m f/4.64 reflector
    + CCD.
585 Kyiv comet station.  Observers A. Baransky, S. Borysenko, Y. Krugly.
    0.7-m f/4 reflector + CCD.
691 Steward Observatory, Kitt Peak.  Observer M. J. Brucker.  0.9-m f/3
    reflector + CCD.
703 Catalina Sky Survey.  Observer R. A. Kowalski.  Measurers
    E. J. Christensen, D. C. Fuls, A. R. Gibbs, A. D. Grauer, J. A. Johnson,
    R. A. Kowalski, S. M. Larson, G. J. Leonard, R. G. Matheny, R. L. Seaman,
    F. C. Shelly.  0.68-m Schmidt + 10K CCD.
850 Cordell-Lorenz Observatory, Sewanee.  Observer D. T. Durig.  0.3-m f/9.4
    Schmidt-Cassegrain + CCD.
A17 Guidestar Observatory, Weinheim.  Observers M. Emmerich, S. Melchert.
    0.36-m f/6 Schmidt-Cassegrain + CCD.
B49 Paus Observatory, Sabadell.  Observer J. Camarasa.  0.30-m f/4 Newtonian
    reflector + CCD.
E23 Arcadia.  Observer A. Hidas.  0.35-m f/1.9 reflector + CCD.
G34 Oberfrauendorf.  Observer T. Felber.  0.25-m f/10 Schmidt-Cassegrain + CCD
    + f/6.3 focal reducer.
H21 Astronomical Research Observatory, Westfield.  Observer R. Holmes.
    Measurers S. Foglia, L. Buzzi, T. Linder, R. Holmes.  0.61-m f/4.5
    astrograph + CCD.
J69 North Observatory, Clanfield.  Observer D. Briggs.  0.41-m f/4.5 Newtonian
    reflector + CCD.
J95 Great Shefford.  Observer P. Birtwhistle.  0.40-m f/6.0 Schmidt-Cassegrain
    + CCD.
K88 GINOP-KHK, Piszkesteto.  Observer K. Sarneczky.  0.60-m Schmidt + CCD.
L04 ROASTERR-1 Observatory, Cluj-Napoca.  Observer L. Hudin.  0.3-m f/5.0
    reflector + CCD.
Q62 iTelescope Observatory, Siding Spring.  Observers S. Foglia, L. Buzzi,
    P. Concari, C. Cremaschini, G. Galli, M. Tombelli.  0.15-m f/7 refractor
    + CCD.
T05 ATLAS-HKO, Haleakala.  Observers L. Denneau, A. Heinze, H. Weiland,
    B. Stalder, J. Tonry.  Measurers L. Denneau, A. Heinze, J. Tonry.  0.5-m
    f/2.0 Schmidt + CCD.
W25 RMS Observatory, Cincinnati.  Observer B. Rowe.  0.35-m Schmidt-Cassegrain
    + CCD.
W34 Squirrel Valley Observatory, Columbus.  Observer R. L. Flynn.  0.20-m f/10
    Schmidt-Cassegrain + CCD + f/7.0 focal reducer.
Y00 SONEAR Observatory, Oliveira.  Observers C. Jacques, E. Pimentel,
    J. Barros.  Measurer C. Jacques.  0.45-m f/2.9 reflector + CCD.
 
Orbital elements:
2017 RV2                                                 Earth MOID = 0.0003 AU
Epoch 2017 Sept. 4.0 TT = JDT 2458000.5                 MPC
M   8.34535              (2000.0)            P               Q
n   0.52082628     Peri.  148.69917     +0.77726885     +0.62916842
a   1.5299390      Node   172.31197     -0.57798993     +0.71434441
e   0.3602514      Incl.    0.20559     -0.24855740     +0.30636442
P   1.89           H   26.3           G   0.15           U   5
Residuals in seconds of arc
170914 T05  0.0   0.5+    170915 Y00  0.1+  0.8+    170915 B49  0.1-  0.1+
170914 T05  0.1+  0.4+    170915 Y00  0.6-  0.7+    170916 L04  0.1-  0.1-
170914 T05  0.1-  0.3+    170915 Y00  0.5+  1.0+    170916 L04  0.1+  0.2-
170914 T05  0.1-  0.3+    170915 Y00  0.2-  0.5+    170916 W34  0.8+  0.2+
170914 G34  0.3+  0.3-    170915 Y00  0.4-  0.3+    170916 W34  0.0   0.2-
170914 G34  1.4+  0.3-    170915 Y00  0.3+  0.6+    170916 W34  0.4-  0.2-
170914 G34  0.7+  0.9-    170915 850  0.4+  0.3-    170916 W34  0.2+  0.4+
170914 G34  2.5-  0.2-    170915 Y00  0.9-  0.1+    170916 850  0.3+  0.0
170914 G34  0.9-  0.5+    170915 Y00  0.0   0.3+    170916 850  0.0   0.2-
170914 G34 (3.2+  1.2-)   170915 Y00  0.1+  0.0     170916 850  0.8+  0.4+
170914 G34  0.1-  0.5+    170915 850  0.3+  0.1-    170916 850  0.2+  0.2-
170914 J95  0.1-  0.1-    170915 850  0.8+  0.4-    170916 850  0.1+  0.0
170914 J95  0.1+  0.1-    170915 850  0.5+  0.3-    170916 850  0.4+  0.1-
170914 J95  0.1-  0.1-    170915 850  0.1-  0.3-    170916 850  0.8+  0.1+
170914 585  0.3-  0.3-    170915 850  0.1-  0.3+    170916 850  0.1-  0.4+
170914 585  0.0   0.0     170915 703  0.5-  0.1+    170916 W25  0.3-  0.3-
170914 585  0.1-  0.3-    170915 703  1.2-  0.3-    170916 W25  0.1+  0.1-
170914 585  0.3-  0.3-    170915 703  0.3-  0.5+    170916 Q62  0.5+  0.7+
170914 585  0.1-  0.2-    170915 H21  0.4-  0.4-    170916 Q62  0.9+  0.7+
170914 585  0.2-  0.0     170915 H21  0.4-  0.5-    170916 Q62  0.6+  0.3+
170914 585  0.3-  0.1+    170915 H21  0.5-  0.3-    170916 E23  0.2+  0.3+
170914 585  0.4-  0.0     170915 H21  0.4-  0.4-    170916 E23  0.0   0.5+
170914 J69  0.7+  0.5+    170915 K88  0.5-  0.1-    170916 E23  0.1+  0.4+
170915 J69  0.9+  0.3+    170915 K88  0.2-  0.1-    170916 E23  0.2+  0.5+
170915 J69  0.9+  0.6+    170915 K88  0.3-  0.2-    170916 E23  0.2-  0.4+
170915 J69  0.7+  0.3+    170915 A17  0.3+  0.5-    170916 E23  0.2+  0.6+
170915 J69  0.8+  0.4+    170915 A17  0.1-  0.3-    170916 B49  0.3+  0.6-
170915 204  0.5-  0.1-    170915 A17  0.8-  0.0     170916 B49  0.5+  0.4-
170915 204  0.9-  0.1-    170915 A17  0.3-  0.2-    170916 B49  0.4+  0.5-
170915 204  0.3-  0.2-    170915 A17  0.8-  0.2-    170917 691  0.3+  0.4+
170915 204  0.8-  0.1-    170915 B49  0.6+  0.4-    170917 691  0.0   0.2+
170915 204  0.5-  0.1-    170915 A17  0.1+  0.2-    170917 691  0.8+  0.0
170915 850  0.3+  0.1+    170915 B49  0.3+  0.1-

Ephemeris:
2017 RV2                 a,e,i = 1.53, 0.36, 0                   q = 0.9788
Date    TT    R. A. (2000) Decl.     Delta      r     Elong.  Phase     V
2017 08 18    14 00 49.2 -11 07 01   0.09564 0.9788    67.0   107.9    25.2
...
2017 09 02    14 27 34.1 -13 12 15   0.03915 0.9896    59.4   118.7    24.0
...
2017 09 10    16 17 17.5 -19 17 55   0.0098101.0051    78.6   100.8    19.9
...
2017 09 16    00 43 04.1 +04 18 35   0.01601 1.0206   161.5    18.2    18.3
2017 09 17    00 57 41.2 +05 40 36   0.01968 1.0235   158.6    21.0    18.9
2017 09 18    01 07 39.3 +06 35 32   0.02341 1.0265   156.9    22.6    19.3
...
2017 09 24    01 32 15.9 +08 46 32   0.04650 1.0460   156.3    22.7    20.8
...
2017 10 02    01 39 59.3 +09 25 50   0.07877 1.0761   162.1    16.6    21.8
...
2017 10 17    01 40 29.7 +09 29 53   0.1464  1.1429   176.7     2.9    22.7

A. U. Tomatic                (C) Copyright 2017 MPC           M.P.E.C. 2017-S15




More information about the Iaude mailing list